TimeCDT,TemperatureF,Dew PointF,Humidity,Sea Level PressureIn,VisibilityMPH,Wind Direction,Wind SpeedMPH,Gust SpeedMPH,PrecipitationIn,Events,Conditions,WindDirDegrees,DateUTC
12:54 AM,66.9,37.9,34,29.57,10.0,WNW,11.5,-,N/A,,Clear,300,2013-05-15 05:54:00
1:54 AM,63.0,39.0,41,29.60,10.0,WNW,8.1,-,N/A,,Clear,290,2013-05-15 06:54:00
2:54 AM,63.0,43.0,48,29.62,10.0,WNW,13.8,-,N/A,,Clear,300,2013-05-15 07:54:00
3:54 AM,61.0,44.1,54,29.65,10.0,WNW,9.2,-,N/A,,Clear,300,2013-05-15 08:54:00
4:54 AM,59.0,46.0,62,29.69,10.0,NW,13.8,-,N/A,,Clear,310,2013-05-15 09:54:00
5:54 AM,55.9,46.0,69,29.72,10.0,NW,12.7,-,N/A,,Partly Cloudy,320,2013-05-15 10:54:00
6:54 AM,57.9,46.9,67,29.75,10.0,NW,10.4,-,N/A,,Clear,320,2013-05-15 11:54:00
7:54 AM,60.1,46.0,60,29.81,10.0,NW,15.0,-,N/A,,Clear,320,2013-05-15 12:54:00
8:54 AM,63.0,44.1,50,29.86,10.0,NNW,13.8,-,N/A,,Clear,330,2013-05-15 13:54:00
9:02 AM,62.6,44.6,52,29.86,10.0,WNW,12.7,-,N/A,,Partly Cloudy,300,2013-05-15 14:02:00
9:54 AM,64.9,44.1,47,29.86,10.0,NW,18.4,-,N/A,,Clear,320,2013-05-15 14:54:00
10:54 AM,66.9,41.0,39,29.86,10.0,NNW,12.7,20.7,N/A,,Clear,340,2013-05-15 15:54:00
11:54 AM,66.9,39.9,37,29.83,10.0,North,10.4,-,N/A,,Clear,360,2013-05-15 16:54:00
12:54 PM,68.0,39.0,35,29.85,10.0,WNW,9.2,-,N/A,,Clear,300,2013-05-15 17:54:00
1:54 PM,71.1,39.9,32,29.85,10.0,WNW,10.4,-,N/A,,Clear,290,2013-05-15 18:54:00
2:54 PM,72.0,37.0,28,29.83,10.0,WNW,6.9,17.3,N/A,,Clear,290,2013-05-15 19:54:00
3:54 PM,72.0,39.0,30,29.81,10.0,West,8.1,-,N/A,,Clear,280,2013-05-15 20:54:00
4:54 PM,73.9,41.0,30,29.80,10.0,WNW,10.4,-,N/A,,Clear,300,2013-05-15 21:54:00
5:54 PM,73.0,41.0,31,29.80,10.0,West,8.1,-,N/A,,Clear,280,2013-05-15 22:54:00
6:54 PM,72.0,43.0,35,29.80,10.0,West,8.1,-,N/A,,Clear,280,2013-05-15 23:54:00
7:54 PM,69.1,44.1,40,29.81,10.0,West,6.9,-,N/A,,Clear,260,2013-05-16 00:54:00
8:54 PM,64.9,44.1,47,29.82,10.0,West,6.9,-,N/A,,Clear,260,2013-05-16 01:54:00
9:54 PM,63.0,44.1,50,29.83,10.0,West,8.1,-,N/A,,Clear,260,2013-05-16 02:54:00
10:54 PM,61.0,43.0,52,29.83,10.0,West,6.9,-,N/A,,Clear,260,2013-05-16 03:54:00
11:54 PM,61.0,43.0,52,29.84,10.0,West,6.9,-,N/A,,Clear,270,2013-05-16 04:54:00